Voltar ao catálogo

DELTA 2 R/B(1)

AtivoUNKNOWN
NORAD 22176·ROCKET BODY·🇺🇸 United States

Lançado Oct 12, 1992 de Cape Canaveral Space Force Station

Loading…

Próximas Passagens (próximas 24 horas)

TLE

AtualizadoSource: Space-Track

Época: Sep 14, 2026, 20:36 UTC

1 22176U 92066B   26257.85886119  .00000109  00000-0  70475-3 0  9995
2 22176  25.0833 103.5480 0965623 185.5174 207.4835 10.85575087346776

Acompanhe DELTA 2 R/B(1) em tempo real com AllMySat

Download on the App Store